Wind_Speed
4 5 6 7 10 12 14 16 18 19 21 22 23 24 25 25 26 26 27 27 27 28 28 28 28 29 29 30 30 31 32 33 34 35 38 39 41 42 44 45 47 48 48
5 6 7 9 12 14 17 18 20 21 23 24 25 26 26 27 27 28 28 29 29 29 29 29 29 29 29 30 31 31 32 32 33 34 37 38 40 41 43 44 46 48 49
8 9 10 12 14 16 18 20 21 23 24 25 26 27 28 28 29 29 30 30 30 30 30 30 30 30 30 30 30 31 31 32 32 33 36 38 40 41 42 43 45 47 49
10 11 13 14 16 18 20 21 23 24 25 27 27 28 29 30 30 31 31 31 31 31 31 31 31 31 31 31 30 31 31 31 32 33 34 36 38 41 42 43 44 46 48
12 13 15 16 18 19 21 23 24 25 26 27 29 30 30 31 31 32 32 33 33 33 33 32 32 31 31 31 31 31 31 31 32 32 33 34 36 39 41 42 43 45 46
14 15 16 18 19 21 22 24 25 26 27 29 30 31 32 32 32 33 34 34 34 34 34 33 33 32 32 32 31 31 31 31 31 31 32 33 34 37 39 40 42 44 45
16 17 18 19 21 22 24 25 26 28 29 30 31 32 33 33 33 34 35 35 35 35 34 33 33 33 32 32 32 31 31 31 31 31 31 32 34 36 38 39 40 41 43
17 18 19 21 22 24 25 26 28 29 30 31 33 33 34 34 35 35 36 36 36 35 34 34 33 33 32 32 32 31 31 31 31 30 30 31 33 35 37 39 40 41 42
19 20 21 22 24 25 27 28 29 30 31 32 33 34 34 35 36 36 36 37 36 36 35 35 34 33 33 33 32 32 31 31 31 31 31 31 32 34 35 35 37 39 40
20 21 22 24 26 27 28 29 31 32 33 34 34 35 36 36 37 37 37 37 37 36 36 35 34 34 34 34 33 32 31 31 31 31 31 31 31 32 33 34 35 36 38
22 23 24 26 27 29 30 31 32 33 34 35 35 36 36 37 37 37 38 38 37 36 36 36 35 35 34 34 33 32 31 30 30 30 30 31 31 31 32 33 34 35 36
24 25 26 27 29 30 32 33 33 34 35 36 36 37 37 38 38 38 38 38 38 37 37 37 36 35 34 33 32 31 30 30 29 29 29 29 30 30 31 32 32 33 34
25 26 27 29 30 32 33 34 35 35 36 37 38 38 39 39 39 39 39 39 39 38 37 37 36 35 33 32 32 31 30 30 29 29 28 28 28 29 30 30 31 31 32
26 27 29 31 32 34 35 36 36 36 37 38 39 39 40 40 40 40 40 40 39 39 38 37 36 34 33 32 31 31 29 28 28 27 27 27 27 27 28 29 30 30 30
28 30 31 33 34 35 36 37 37 38 39 39 40 41 41 40 41 41 41 40 40 39 38 37 35 34 33 31 31 29 28 27 26 25 25 25 25 26 26 27 28 29 29
31 31 33 34 35 36 37 38 38 39 40 41 41 41 41 41 42 42 42 41 40 39 38 36 35 33 32 31 30 29 27 26 26 25 25 24 24 24 24 25 26 27 28
32 33 34 35 36 37 38 38 39 40 41 42 42 43 43 43 43 43 42 42 41 40 38 37 35 33 31 30 30 29 27 26 25 24 23 22 22 22 23 24 25 26 27
34 35 36 37 38 38 39 40 41 42 42 42 43 44 44 44 44 44 43 42 42 40 39 36 34 32 31 30 29 28 26 25 24 24 23 21 20 20 21 21 23 24 25
35 36 37 38 39 40 41 42 43 44 44 44 44 45 45 45 45 44 44 43 41 40 38 35 33 31 30 30 28 27 25 24 23 22 22 21 21 21 20 20 21 22 23
37 38 38 39 40 41 43 44 45 45 45 46 46 46 46 46 45 45 44 43 41 38 36 34 32 31 30 29 28 26 25 24 23 22 21 21 20 20 19 19 19 20 21
39 39 40 41 42 43 44 45 46 47 47 48 48 47 47 46 46 45 43 41 39 37 34 33 32 30 29 27 26 25 24 23 22 21 21 21 20 19 19 19 19 19 20
40 41 42 44 45 45 46 47 48 49 49 49 49 48 48 47 46 44 41 40 38 36 33 32 31 29 28 27 26 25 24 23 22 21 20 20 19 19 19 19 19 19 19
42 43 44 46 46 47 47 49 49 50 50 49 49 48 47 46 45 42 40 38 36 34 33 31 30 29 27 26 25 25 23 22 21 20 20 19 19 19 19 19 18 18 19
44 45 46 47 48 48 49 50 50 50 49 49 48 47 46 45 43 41 39 37 35 33 32 31 29 28 26 25 24 23 22 22 21 20 19 19 18 18 18 17 16 16 17
45 46 47 48 49 49 49 50 49 49 48 47 46 45 44 43 41 40 38 36 34 32 31 29 27 26 24 23 22 21 21 20 19 18 17 18 17 16 16 15 15 14 14
47 48 48 49 49 49 49 48 47 47 46 45 44 42 41 40 39 37 36 34 32 30 27 26 25 24 23 22 21 20 19 18 18 17 17 16 16 15 14 14 13 13 13
Wind_Direction
295 308 317 324 329 332 335 336 336 336 335 334 334 333 331 329 327 325 323 321 319 316 312 308 305 300 295 291 286 281 275 270 265 262 260 259 257 253 249 246 243 242 242
288 301 310 316 322 325 326 329 330 331 331 331 331 330 330 328 328 326 324 322 320 317 314 311 308 305 299 294 289 284 279 274 269 264 261 259 257 254 251 247 244 243 242
289 298 306 312 317 320 322 324 326 327 328 329 329 329 329 328 327 325 324 322 321 318 316 313 310 307 303 297 292 288 283 278 272 267 263 260 257 254 252 248 246 245 243
291 298 305 310 314 317 320 322 324 325 326 327 328 328 328 328 327 325 324 322 321 319 316 314 311 307 304 300 295 290 286 281 276 271 267 262 258 255 252 249 248 246 244
292 298 304 309 313 316 319 321 323 324 325 326 327 327 327 326 326 325 324 322 321 320 317 315 311 308 304 301 297 293 289 284 280 275 270 266 261 256 252 251 250 249 248
292 299 305 309 312 315 318 320 321 323 324 324 326 326 326 326 324 323 323 321 321 320 318 316 312 309 306 303 299 295 291 287 283 278 273 268 264 259 255 252 251 250 249
295 300 304 307 312 315 318 318 319 321 322 323 324 324 325 325 324 322 322 321 320 320 318 316 313 310 308 304 301 296 292 288 284 280 275 270 265 261 258 256 252 250 249
295 299 303 307 311 314 316 317 318 319 320 321 322 323 324 324 323 323 322 321 320 319 318 317 314 311 309 306 303 298 293 290 285 281 277 272 268 264 261 259 255 251 249
295 300 304 307 310 313 315 316 317 318 319 320 321 322 323 323 323 322 321 321 320 319 319 318 315 312 310 307 303 299 294 291 287 283 278 274 270 266 263 260 256 252 249
295 299 304 307 309 311 312 315 316 317 318 319 320 321 322 322 322 321 321 322 321 320 319 319 316 313 310 308 304 301 296 292 289 285 281 275 271 266 264 261 257 254 250
296 300 303 305 307 309 311 314 315 316 317 318 319 321 322 322 322 322 321 321 321 319 319 318 316 313 311 308 305 302 298 293 289 287 283 278 272 267 264 261 258 256 252
295 298 301 303 306 308 310 312 314 315 316 317 318 319 320 321 321 322 321 321 320 319 318 318 317 314 312 309 306 303 299 295 291 288 285 280 274 268 264 261 258 256 254
295 298 300 303 305 307 309 311 312 313 315 316 317 318 319 320 320 320 320 320 320 319 319 318 317 315 313 310 308 304 301 297 293 290 286 281 275 269 265 262 259 256 253
296 298 300 302 304 306 308 309 310 312 313 315 316 317 317 318 318 318 319 319 319 319 318 317 316 315 314 311 309 308 305 301 296 293 289 282 275 270 266 263 260 258 254
295 296 298 300 302 304 306 308 309 311 312 314 315 315 316 316 316 317 317 318 318 318 317 316 315 314 314 313 311 309 306 303 299 295 292 286 279 273 268 264 260 257 254
294 295 297 299 301 303 304 306 308 310 311 312 313 314 315 315 315 316 316 316 316 316 316 315 314 312 312 311 310 309 306 303 301 298 294 289 283 277 271 267 262 259 254
293 294 296 298 300 301 303 305 306 308 309 310 311 312 312 313 314 314 315 315 314 314 313 313 312 310 309 309 308 307 306 302 300 300 297 291 286 281 275 270 265 261 256
293 294 296 298 299 300 302 303 305 306 307 308 309 310 311 311 312 313 313 313 313 312 312 311 309 308 307 307 307 306 305 302 300 300 298 293 288 286 282 275 268 264 258
292 294 296 297 298 300 301 302 304 305 306 307 308 308 309 309 310 311 312 312 312 311 311 309 308 306 306 306 305 305 304 302 300 300 299 294 290 286 283 278 272 266 261
292 293 295 296 298 299 300 301 302 304 305 305 306 307 307 308 309 309 310 311 310 310 309 307 305 304 303 303 303 303 302 301 299 298 297 294 290 287 283 279 275 269 263
293 294 295 296 297 298 299 300 301 302 303 304 305 305 305 306 306 307 308 308 308 308 306 304 303 302 301 301 301 301 299 298 297 295 295 293 290 287 284 281 276 270 265
292 294 295 295 296 297 298 299 300 302 303 303 303 304 304 304 305 306 305 305 305 304 303 302 301 300 300 300 299 298 297 295 295 294 294 292 289 287 285 282 277 270 264
292 293 294 295 296 297 298 299 300 301 302 302 302 303 303 303 304 304 303 303 303 302 301 299 297 296 297 298 298 296 295 293 293 293 293 292 290 287 285 283 277 271 264
292 293 294 296 297 297 298 299 300 301 301 302 302 302 302 302 302 301 301 301 300 298 297 296 295 294 293 294 296 295 293 292 291 290 290 290 290 289 285 283 279 273 264
292 293 295 296 296 297 298 299 300 301 302 302 302 302 302 302 302 301 300 299 297 296 294 292 291 291 291 291 293 292 291 291 290 289 290 292 291 289 285 281 279 273 264
293 294 295 296 296 297 298 299 300 301 302 302 302 302 302 302 301 301 300 299 296 295 292 290 288 287 287 288 289 289 289 289 288 288 289 292 290 287 284 280 277 271 261
Height
5843 5843 5842 5841 5839 5838 5836 5833 5831 5828 5825 5821 5818 5814 5811 5807 5803 5800 5796 5792 5788 5785 5781 5778 5775 5772 5769 5767 5765 5764 5763 5763 5764 5764 5763 5763 5765 5767 5770 5773 5777 5781 5785
5841 5840 5839 5838 5837 5835 5832 5830 5827 5824 5820 5817 5813 5809 5806 5802 5798 5794 5790 5786 5782 5778 5774 5770 5767 5763 5760 5758 5756 5754 5753 5752 5753 5753 5752 5752 5753 5755 5757 5760 5764 5768 5772
5838 5837 5836 5835 5833 5831 5829 5826 5823 5820 5816 5812 5808 5804 5800 5796 5792 5788 5783 5779 5775 5771 5767 5763 5759 5755 5752 5749 5746 5744 5743 5742 5741 5741 5741 5741 5742 5743 5745 5748 5751 5755 5759
5835 5834 5833 5831 5829 5827 5824 5821 5818 5815 5811 5808 5804 5799 5795 5791 5786 5782 5777 5773 5768 5764 5759 5755 5751 5747 5743 5740 5737 5735 5733 5731 5730 5730 5730 5730 5730 5731 5733 5736 5739 5742 5746
5831 5830 5829 5827 5825 5822 5820 5817 5814 5810 5807 5803 5798 5794 5789 5785 5780 5775 5771 5766 5761 5756 5752 5747 5743 5739 5735 5731 5728 5726 5723 5721 5720 5719 5719 5718 5718 5719 5721 5724 5727 5730 5733
5827 5826 5824 5822 5820 5818 5815 5812 5808 5805 5801 5797 5793 5788 5784 5779 5774 5769 5764 5759 5754 5749 5744 5739 5734 5730 5726 5723 5719 5716 5714 5711 5709 5708 5708 5707 5707 5708 5709 5712 5715 5718 5722
5823 5821 5820 5818 5815 5813 5810 5806 5803 5799 5795 5791 5787 5782 5777 5772 5767 5762 5757 5752 5747 5741 5736 5731 5726 5722 5718 5714 5710 5707 5704 5701 5700 5698 5697 5696 5696 5697 5698 5700 5702 5705 5708
5818 5817 5815 5813 5810 5807 5804 5801 5797 5793 5789 5785 5780 5776 5771 5766 5760 5755 5750 5744 5739 5733 5728 5723 5718 5713 5709 5705 5701 5698 5694 5692 5690 5688 5687 5686 5685 5685 5686 5687 5689 5692 5695
5813 5812 5809 5807 5804 5801 5798 5795 5791 5787 5783 5778 5774 5769 5764 5759 5753 5748 5742 5736 5731 5725 5720 5715 5710 5705 5700 5696 5692 5688 5685 5682 5679 5678 5676 5675 5674 5674 5674 5675 5677 5679 5683
5808 5806 5803 5801 5798 5795 5792 5789 5785 5780 5776 5771 5767 5762 5756 5751 5745 5740 5734 5728 5723 5717 5712 5707 5701 5696 5691 5686 5683 5679 5676 5672 5670 5667 5666 5664 5663 5663 5663 5664 5665 5667 5670
5802 5800 5797 5795 5792 5789 5785 5782 5778 5773 5769 5764 5759 5754 5749 5743 5737 5732 5726 5720 5715 5709 5703 5698 5692 5687 5682 5677 5673 5669 5666 5663 5660 5658 5655 5654 5653 5652 5652 5653 5655 5656 5659
5795 5793 5791 5788 5785 5782 5779 5775 5770 5766 5761 5756 5751 5746 5741 5735 5730 5724 5718 5712 5706 5701 5695 5689 5684 5678 5673 5668 5664 5660 5656 5653 5651 5648 5646 5644 5642 5642 5642 5643 5644 5646 5648
5789 5786 5784 5781 5778 5775 5771 5767 5763 5759 5754 5749 5743 5738 5733 5727 5722 5716 5710 5704 5698 5692 5687 5681 5675 5670 5664 5660 5655 5651 5647 5644 5641 5639 5636 5634 5633 5632 5632 5633 5634 5636 5637
5781 5779 5777 5774 5771 5767 5763 5759 5755 5751 5746 5741 5735 5730 5724 5719 5713 5707 5701 5696 5690 5684 5678 5672 5667 5661 5656 5652 5647 5643 5639 5635 5632 5630 5627 5625 5624 5623 5623 5624 5625 5626 5628
5774 5772 5769 5766 5763 5759 5755 5751 5747 5742 5737 5732 5727 5721 5716 5711 5705 5699 5693 5687 5681 5675 5669 5664 5659 5653 5649 5644 5639 5635 5631 5627 5624 5622 5619 5617 5616 5615 5614 5615 5615 5616 5618
5766 5764 5761 5758 5755 5751 5747 5742 5738 5733 5728 5723 5718 5712 5707 5702 5696 5690 5684 5678 5672 5667 5661 5656 5650 5645 5641 5636 5632 5628 5624 5620 5617 5614 5612 5609 5608 5606 5606 5606 5606 5607 5609
5759 5756 5753 5749 5746 5742 5738 5733 5729 5724 5719 5714 5708 5703 5697 5692 5686 5680 5675 5669 5663 5658 5652 5647 5642 5637 5633 5629 5625 5621 5617 5613 5610 5607 5604 5602 5600 5599 5598 5598 5598 5599 5600
5750 5747 5744 5740 5736 5732 5728 5724 5719 5715 5710 5704 5699 5693 5687 5682 5676 5670 5665 5659 5654 5648 5643 5638 5634 5629 5625 5621 5617 5613 5610 5607 5604 5601 5598 5596 5594 5592 5591 5591 5590 5591 5591
5741 5738 5734 5731 5727 5723 5718 5713 5709 5704 5699 5694 5689 5683 5677 5671 5666 5660 5655 5649 5644 5639 5634 5629 5625 5621 5617 5614 5610 5606 5603 5600 5597 5594 5592 5589 5588 5586 5585 5584 5583 5583 5584
5731 5728 5724 5720 5716 5712 5708 5703 5698 5693 5688 5683 5678 5672 5666 5661 5655 5650 5644 5639 5634 5629 5625 5620 5617 5613 5610 5606 5603 5600 5596 5594 5591 5588 5586 5584 5582 5580 5579 5578 5577 5576 5577
5720 5717 5713 5709 5705 5701 5696 5692 5687 5682 5676 5671 5666 5660 5655 5649 5644 5639 5634 5629 5624 5620 5616 5612 5608 5605 5602 5599 5596 5593 5590 5587 5585 5582 5580 5578 5576 5574 5573 5572 5571 5571 5570
5709 5705 5702 5698 5694 5689 5684 5679 5674 5669 5664 5659 5654 5648 5642 5637 5632 5628 5623 5619 5614 5610 5607 5603 5600 5597 5594 5591 5588 5586 5583 5581 5578 5576 5574 5572 5570 5569 5567 5566 5565 5565 5565
5697 5693 5689 5685 5681 5676 5672 5667 5661 5656 5651 5646 5641 5635 5630 5625 5620 5616 5612 5608 5604 5601 5597 5594 5592 5589 5586 5583 5581 5579 5576 5574 5572 5570 5568 5566 5564 5563 5562 5560 5559 5559 5559
5685 5681 5677 5672 5668 5663 5658 5653 5648 5643 5638 5633 5627 5622 5618 5613 5609 5604 5601 5597 5594 5591 5588 5585 5583 5580 5578 5576 5574 5572 5570 5567 5566 5564 5562 5560 5559 5557 5556 5555 5554 5553 5553
5672 5668 5664 5659 5654 5650 5645 5640 5635 5630 5625 5619 5615 5610 5605 5601 5597 5593 5589 5586 5583 5580 5578 5576 5574 5572 5570 5569 5567 5565 5563 5561 5559 5558 5557 5555 5554 5552 5551 5550 5549 5548 5548
5658 5654 5650 5645 5640 5636 5631 5627 5622 5617 5612 5607 5603 5598 5594 5589 5586 5582 5579 5576 5573 5570 5568 5567 5565 5564 5562 5561 5560 5558 5557 5555 5554 5553 5551 5550 5549 5547 5546 5545 5545 5544 5544